Location: Newark
(35.8833°N, 14.5000°E)
Time: 01:39:56
(UTC+00:00)

Altair - Pass Details

Date: 25 November 2019
Orbit: 1502 x 1682 km, 47.2° (Epoch: 12 December)

Event Time Altitude Azimuth Distance (km) Brightness Sun altitude
Rises 22:59:18 0° 220° (SW) 4,714 - -74.8°
Reaches altitude 10° 23:02:25 10° 217° (SW) 3,711 - -74.7°
Maximum altitude 23:11:35 65° 139° (SE) 1,642 - -74.2°
Drops below altitude 10° 23:20:36 10° 60° (ENE) 3,652 - -73.4°
Sets 23:23:38 0° 57° (ENE) 4,637 - -73.2°
